SCP
0 0 0 0 0 0 0 0 0 0 0 0 0 0 0 0 0 0 0 0 0 0 0 0 0 0 0 0 0 0 0 0 0 -0 0 -0 0 0 0 0 -0 -0 -0 0
0 0 0 0 0 0 0 0 0 0 0 0 0 0 0 0 0 0 0 0 0 0 0 0 0 0 0 0 0 0 0 0 0 0 0 0 0 0 -0 -0 -0 -0 -0 -0
0 0 0 0 0 0 0 -0 0 0 0 0 0 0 0 0 0 0 0 0 0 0 0 0 0 0 0 0 0 0 0 0 0 0 -0 -0 -0 0 -0 -0 -0 -0 -0 0
0 0 0 0 0 0 0 0 0 0 0 0 0 0 0 0 0 0 0 0 0 0 0 0 0 0 0 0 0 0 0 0 0 -0 -0 0 -0 0 0 -0 -0 -0 -0 0
0 0 0 0 0 -0 0 0 0 0 0 0 0 0 0 0 0 0 0 0 0 0 0 0 0 0 0 0 0 0 0 0 0 0 0 0 -0 -0 -0 -0 -0 0 0 0
0 0 0 0 0 -0 0 0 0 0 0 0 0 0 0 0 0 0 0 0 0 0 0 -0 0 0 0 0 0 0 -0 0 0 0 0 0 0 0 0 0 0 -0 0 0
0 0 0 0 0 0 0 0 0 0 0 0 0 0 0 0 0 0 0 0 0 0 0 0 0 0 0 0 0 0 -0 0 0 0 0 -0 -0 0 -0 -0 -0 0 0 0
0 0 0 0 0 0 0 0 0 0 0 0 0 0 0 0 0 0 0 0 0 0 -0 -0 0 0 0 0 0 -0 0 0 0 0 0 0 0 -0 -0 0 0 0 0 0
0 0 0 0 0 0 0 0 0 0 0 0 0 0 0 0 0 0 0 0 0 0 0 -0 -0 0 0 0 -0 -0 0 0 0 0 0 -0 -0 0 -0 0 0 0 0 0
0 0 0 0 0 0 0 0 0 0 0 0 0 0 0 0 0 0 0 0 0 0 0 -0 -0 0 0 0 0 0 0 -0 0 -0 0 0 0 -0 -0 0 0 0 0 0
0 0 0 0 0 0 0 0 0 0 0 0 0 0 0 0 0 0 0 0 0 0 0 -0 -0 0 0 0 0 0 0 -0 -0 -0 0 -0 0 -0 0 0 0 0 0 0
0 0 0 0 0 0 0 0 0 0 0 0 0 0 -0 0 0 0 0 0 0 0 0 -0 -0 -0 0 0 0 0 -0 -0 -0 -0 0 0 0 0 0 0 0 0 0 0
0 0 0 0 0 0 0 0 0 0 0 0 0 0 0 0 0 0 0 0 0 0 0 0 0 -0 0 0 0 0 -0 -0 0 -0 0 0 0 0 0 0 0 0 0 0
0 0 0 0 0 0 0 0 0 0 0 0 0 0 0 0 0 0 0 0 0 0 0 0 -0 -0 0 0 0 0 -0 -0 0 0 0 0 0 0 0 0 0 0 0 0
0 0 0 0 0 0 0 0 0 0 0 0 0 0 0 0 0 0 0 0 0 0 0 -0 -0 -0 -0 0 0 0 -0 0 0 0 0 0 0 0 0 0 0 0 0 0
0 0 0 0 0 0 0 0 0 0 0 0 0 0 0 0 0 0 0 0 0 0 0 -0 -0 0 -0 0 -0 0 0 0 0 0 0 0 -0 0 0 0 0 0 0 0
0 0 0 0 0 0 0 0 0 0 0 0 0 0 0 0 0 0 0 0 0 0 0 -0 -0 -0 -0 -0 -0 0 0 0 0 0 0 0 0 0 0 0 0 0 0 0
0 0 0 0 0 0 0 0 0 0 0 0 0 0 0 0 0 0 0 0 0 0 0 -0 -0 -0 -0 -0 0 0 0 0 0 0 0 0 0 0 -0 -0 0 0 0 0
0 0 0 0 0 0 0 0 0 0 0 0 0 0 0 0 0 0 0 0 0 0 0 -0 -0 -0 -0 -0 -0 0 0 0 0 0 0 0 0 0 0 0 0 0 0 0
0 0 0 0 0 0 0 0 0 0 0 0 0 0 0 0 0 0 0 0 0 0 0 0 -0 -0 -0 -0 -0 0 0 0 0 0 0 0 0 0 0 0 0 0 0 -0
0 0 0 0 0 0 0 0 0 0 0 0 0 0 -0 0 0 0 0 0 0 0 0 0 -0 -0 -0 0 -0 -0 0 0 0 0 0 0 0 0 0 0 0 0 0 0
0 0 0 0 0 0 0 0 0 0 0 0 0 0 0 0 0 0 0 0 0 0 0 0 -0 0 -0 -0 -0 -0 0 0 0 0 0 0 0 0 0 0 0 0 0 0
0 0 0 0 0 0 0 0 0 0 0 0 0 0 0 0 0 0 0 0 0 0 0 0 -0 0 0 -0 -0 -0 0 0 0 0 0 0 0 0 0 0 0 0 0 0
0 0 0 0 0 0 0 0 0 0 0 0 0 0 0 0 0 0 0 0 0 0 0 0 0 -0 -0 0 -0 -0 -0 0 0 0 0 0 0 0 0 0 0 0 0 0
0 0 0 0 0 0 0 0 0 0 -0 0 0 0 0 0 0 0 0 0 0 0 0 0 0 -0 -0 -0 -0 0 0 0 0 0 0 0 0 0 0 0 0 0 0 0
0 0 0 0 0 0 0 0 0 -0 -0 0 0 0 0 0 0 0 0 0 0 0 0 0 0 -0 -0 -0 0 0 -0 0 0 0 0 0 0 0 0 0 0 0 0 0
0 0 0 0 0 0 0 0 -0 -0 -0 -0 0 0 0 0 0 0 0 0 0 0 0 0 0 -0 -0 -0 0 0 0 -0 0 0 0 0 0 0 0 0 0 0 0 0
Wind_Speed_500mb
67 68 74 79 87 90 82 24 7 30 34 6 6 10 13 12 17 13 17 18 22 23 32 12 14 18 16 33 22 13 15 8 12 35 24 31 24 26 31 14 25 23 28 28
65 67 72 77 78 82 70 29 12 20 22 10 13 16 10 10 19 19 10 13 13 34 16 16 18 31 22 34 18 8 4 8 10 10 15 19 13 24 30 33 22 26 12 14
64 66 67 71 70 74 53 19 10 10 15 7 14 18 11 17 20 26 17 28 28 25 40 27 21 42 18 55 44 38 14 9 16 21 37 6 12 14 27 28 19 21 22 31
61 64 66 70 68 66 42 19 9 5 12 8 23 16 11 26 23 11 21 14 28 41 16 41 17 50 48 26 9 10 5 10 15 31 41 22 20 20 14 31 31 15 15 28
58 59 62 65 59 58 22 21 16 13 31 19 24 4 17 22 26 14 20 24 46 41 35 28 51 49 35 7 12 9 5 8 23 29 15 6 9 12 14 23 25 26 28 37
55 54 55 62 61 53 17 18 15 11 18 14 14 14 19 25 33 24 31 37 40 42 44 72 72 47 27 12 9 10 7 9 11 10 15 3 11 14 18 11 15 8 15 23
54 50 53 63 56 43 31 16 13 11 14 18 17 26 36 35 34 34 52 46 32 50 76 67 27 13 11 12 12 7 15 17 11 12 18 4 8 19 13 15 12 20 22 36
52 49 50 59 54 36 23 18 7 9 11 27 24 23 32 35 38 27 34 34 45 52 52 21 14 5 6 3 10 15 17 9 11 11 17 4 4 16 15 13 6 27 37 2
52 49 49 54 48 43 26 21 10 7 18 6 17 23 29 21 24 24 27 41 36 34 17 17 12 8 14 10 30 16 20 13 9 13 10 12 10 40 51 8 6 35 32 17
51 51 46 49 46 46 30 13 13 7 18 17 14 16 18 17 18 14 33 42 18 23 17 15 12 8 15 11 19 20 17 13 15 17 7 4 21 51 52 5 11 51 36 13
51 50 47 51 48 45 35 21 19 12 17 42 29 23 30 27 25 13 34 22 15 7 13 10 11 8 11 9 5 13 9 13 9 10 9 8 59 33 15 21 37 29 25 40
48 50 50 51 50 44 41 21 21 15 28 36 51 51 51 47 40 33 12 12 17 6 6 8 8 8 7 14 8 4 5 8 10 8 8 21 47 36 55 26 5 15 25 38
53 50 52 46 48 48 33 24 14 15 22 37 21 13 16 15 23 28 14 8 10 11 13 8 5 7 5 8 7 11 4 9 7 17 7 28 36 57 57 20 22 36 42 49
46 52 46 42 44 36 31 24 11 15 14 12 11 15 23 22 25 31 40 34 24 25 20 9 7 6 1 7 10 6 9 20 15 7 12 36 21 57 42 29 38 49 57 58
46 44 33 34 39 34 26 26 24 21 15 11 28 44 8 4 15 22 27 32 24 16 8 8 7 7 7 8 7 1 9 8 9 7 22 15 27 51 25 32 31 37 65 66
33 31 32 34 34 30 15 6 4 13 31 9 9 16 18 10 14 15 20 19 17 15 8 15 5 1 9 7 6 3 11 11 19 11 32 25 23 33 24 33 43 55 76 73
37 29 29 27 30 29 17 9 7 5 20 8 14 9 5 8 14 12 12 15 10 10 9 9 9 1 7 5 5 6 16 15 16 17 13 9 27 20 30 39 47 61 66 66
36 31 25 24 25 27 26 25 21 23 16 9 7 9 10 7 10 9 8 8 7 10 9 10 10 1 5 5 6 13 9 9 15 16 15 14 13 27 35 43 47 60 61 58
28 23 21 18 17 13 10 16 19 30 17 8 10 6 5 4 13 6 4 6 6 1 7 4 7 3 3 4 13 6 4 4 5 11 12 19 25 28 32 42 52 61 56 54
27 22 12 11 10 16 15 9 18 24 14 15 11 21 13 13 8 4 2 5 4 4 1 2 6 4 1 4 1 2 5 6 7 7 15 15 21 25 30 37 45 51 55 61
25 13 12 15 19 17 9 12 12 17 10 15 17 32 19 14 12 10 1 2 3 4 2 6 3 5 3 9 6 7 9 9 4 8 14 15 20 26 32 37 44 51 56 59
13 8 11 14 13 13 9 8 10 13 8 16 16 17 25 10 9 9 7 3 2 5 2 5 4 4 7 8 7 12 9 10 13 14 20 20 19 23 31 40 46 51 54 54
12 10 6 9 9 11 11 15 9 7 12 13 20 13 12 12 12 8 6 8 7 3 5 4 4 14 16 10 15 14 13 16 17 22 23 21 24 25 29 39 43 50 53 53
11 11 9 10 11 12 14 12 7 19 11 14 21 14 11 6 9 4 8 2 3 4 5 3 8 21 26 17 18 21 19 19 20 25 25 26 29 34 38 41 46 50 53 51
12 11 11 16 24 10 6 11 19 19 14 12 11 7 9 7 5 5 4 6 8 4 3 7 15 29 31 28 24 23 25 24 25 26 24 25 30 33 35 39 42 42 42 35
11 15 11 20 10 19 17 24 26 27 19 12 12 6 6 8 5 8 10 5 4 2 5 10 27 32 33 31 29 25 26 25 24 23 25 25 24 26 30 31 30 31 31 31
11 16 29 28 8 17 20 23 25 23 27 16 8 10 7 5 6 6 5 4 3 4 6 7 26 35 36 35 33 32 31 29 26 27 25 25 28 29 30 31 29 27 27 28
Wind_Direction_500mb
347 351 356 358 356 358 3 1 312 340 3 334 1 357 331 321 300 311 288 286 293 319 323 280 280 256 285 309 326 278 264 276 259 263 255 257 234 222 226 233 228 239 268 269
345 351 352 355 355 356 355 338 303 338 8 17 349 339 297 267 308 325 299 288 298 311 303 299 251 292 282 319 316 261 181 232 280 251 215 224 239 226 232 236 259 267 275 279
342 346 351 354 356 355 353 343 329 354 30 53 340 339 313 324 318 301 273 286 299 290 312 301 283 289 302 318 305 291 213 246 242 271 303 343 244 227 221 230 253 262 262 295
339 342 346 351 350 355 8 358 23 345 315 336 332 307 289 321 339 281 303 287 310 333 306 302 278 314 314 316 317 305 234 263 245 253 273 268 242 263 194 239 242 251 287 255
333 338 341 347 348 352 14 350 342 311 292 297 308 84 322 312 328 308 299 303 322 321 304 305 315 313 312 289 313 302 272 276 303 292 285 208 224 198 210 236 261 261 261 270
329 332 336 338 344 352 15 342 325 321 305 317 304 352 321 307 314 295 281 299 317 311 313 319 304 291 286 245 281 317 289 304 302 295 331 301 122 10 308 327 298 281 266 267
325 331 331 333 337 343 347 346 340 302 300 310 318 309 309 306 308 288 295 308 316 317 319 312 285 233 216 210 192 351 309 312 280 288 305 316 105 42 344 317 289 307 285 251
320 320 326 328 332 333 339 336 357 303 286 303 292 317 309 309 310 297 300 316 324 325 319 325 331 308 50 334 318 332 317 295 300 319 331 331 25 22 341 330 298 351 355 315
316 317 320 330 332 326 320 323 309 281 305 324 312 307 302 302 315 310 325 332 330 337 314 360 337 347 336 336 327 352 320 270 248 330 322 352 15 329 328 185 356 347 326 136
311 312 314 316 316 317 313 300 308 254 269 288 295 282 313 300 299 290 302 341 333 1 330 349 350 324 1 344 327 339 339 356 351 341 333 97 3 329 318 343 332 317 349 335
301 308 308 310 306 310 301 293 296 244 270 289 265 265 273 280 267 283 321 327 14 312 347 348 354 310 356 302 282 335 325 332 360 328 335 350 355 346 4 306 299 322 32 94
294 295 300 301 306 305 298 291 293 259 252 271 286 277 263 252 255 284 303 283 322 320 314 358 305 307 313 317 323 345 340 10 313 334 336 337 325 313 315 344 81 41 77 97
282 293 287 297 307 301 286 275 245 278 287 303 281 286 271 288 275 231 240 268 307 320 338 311 284 295 337 323 13 304 136 33 277 321 60 334 324 355 2 74 79 93 98 102
281 287 278 291 301 289 275 265 277 256 290 283 283 284 281 280 252 235 240 260 293 305 296 286 309 298 217 313 314 298 12 308 326 262 344 330 340 1 7 83 98 97 100 99
284 283 276 296 298 282 263 272 277 239 240 290 296 308 311 180 221 239 241 242 259 288 286 272 303 309 293 254 280 193 0 351 339 349 325 311 303 352 34 88 97 104 114 105
303 293 287 301 295 279 256 290 280 219 206 287 295 311 285 237 239 250 230 230 236 248 288 279 304 325 290 308 308 80 339 307 292 282 315 324 338 20 81 104 117 107 110 113
305 293 287 284 273 261 230 209 200 196 185 257 279 279 259 246 253 238 225 210 234 260 271 257 300 257 272 296 282 5 335 343 351 332 314 353 37 46 98 117 118 113 110 107
308 299 265 254 255 268 263 227 237 229 198 240 272 278 275 197 241 232 213 229 231 225 268 263 270 270 239 257 301 326 310 345 20 35 49 70 83 92 104 123 127 117 117 123
308 270 248 242 241 230 226 207 230 211 200 260 236 261 309 299 258 276 213 207 242 173 268 262 290 326 236 276 312 314 330 329 43 60 69 84 97 102 109 125 126 124 121 124
258 232 230 236 220 186 196 150 158 186 218 232 251 248 253 300 270 246 166 229 289 269 5 281 255 265 321 183 120 60 131 143 90 72 79 89 97 112 123 122 129 134 133 130
219 216 231 216 185 170 202 204 185 197 230 218 238 235 230 221 260 324 256 311 216 266 181 291 249 279 106 149 134 141 132 110 72 104 109 114 125 129 134 139 143 145 142 137
214 227 214 189 192 206 219 201 201 214 242 192 214 213 206 220 227 255 188 273 198 261 271 272 270 67 126 140 145 163 142 118 105 125 125 117 123 139 143 145 147 146 143 140
226 216 233 223 197 219 213 200 190 221 205 201 190 187 191 188 217 242 253 241 208 178 245 250 340 129 147 137 137 137 126 112 105 119 123 123 123 134 146 145 146 145 144 135
205 198 225 223 195 230 207 213 171 227 246 192 196 174 208 183 197 249 252 82 224 235 236 289 84 157 151 141 135 137 131 122 110 106 114 121 128 135 138 142 145 144 142 141
210 211 231 219 241 265 248 227 241 247 233 196 199 213 226 182 232 208 302 232 242 259 13 17 116 153 154 152 142 142 135 127 122 120 114 116 125 127 132 138 141 144 142 142
230 228 249 239 254 251 239 249 243 220 218 213 226 190 201 192 230 207 221 266 264 40 21 67 148 155 157 158 157 152 146 138 133 134 137 139 140 143 143 144 150 152 154 154
225 235 231 246 259 249 235 253 240 212 214 212 213 200 168 123 216 224 206 254 27 27 71 128 164 163 164 163 161 157 153 146 143 139 142 142 146 152 151 152 155 159 163 159
Wind_Speed_850mb
67 68 74 79 87 90 82 24 7 30 34 6 6 10 13 12 17 13 17 18 22 23 32 12 14 18 16 33 22 13 15 8 12 35 24 31 24 26 31 14 25 23 28 28
65 67 72 77 78 82 70 29 12 20 22 10 13 16 10 10 19 19 10 13 13 34 16 16 18 31 22 34 18 8 4 8 10 10 15 19 13 24 30 33 22 26 12 14
64 66 67 71 70 74 53 19 10 10 15 7 14 18 11 17 20 26 17 28 28 25 40 27 21 42 18 55 44 38 14 9 16 21 37 6 12 14 27 28 19 21 22 31
61 64 66 70 68 66 42 19 9 5 12 8 23 16 11 26 23 11 21 14 28 41 16 41 17 50 48 26 9 10 5 10 15 31 41 22 20 20 14 31 31 15 15 28
58 59 62 65 59 58 22 21 16 13 31 19 24 4 17 22 26 14 20 24 46 41 35 28 51 49 35 7 12 9 5 8 23 29 15 6 9 12 14 23 25 26 28 37
55 54 55 62 61 53 17 18 15 11 18 14 14 14 19 25 33 24 31 37 40 42 44 72 72 47 27 12 9 10 7 9 11 10 15 3 11 14 18 11 15 8 15 23
54 50 53 63 56 43 31 16 13 11 14 18 17 26 36 35 34 34 52 46 32 50 76 67 27 13 11 12 12 7 15 17 11 12 18 4 8 19 13 15 12 20 22 36
52 49 50 59 54 36 23 18 7 9 11 27 24 23 32 35 38 27 34 34 45 52 52 21 14 5 6 3 10 15 17 9 11 11 17 4 4 16 15 13 6 27 37 2
52 49 49 54 48 43 26 21 10 7 18 6 17 23 29 21 24 24 27 41 36 34 17 17 12 8 14 10 30 16 20 13 9 13 10 12 10 40 51 8 6 35 32 17
51 51 46 49 46 46 30 13 13 7 18 17 14 16 18 17 18 14 33 42 18 23 17 15 12 8 15 11 19 20 17 13 15 17 7 4 21 51 52 5 11 51 36 13
51 50 47 51 48 45 35 21 19 12 17 42 29 23 30 27 25 13 34 22 15 7 13 10 11 8 11 9 5 13 9 13 9 10 9 8 59 33 15 21 37 29 25 40
48 50 50 51 50 44 41 21 21 15 28 36 51 51 51 47 40 33 12 12 17 6 6 8 8 8 7 14 8 4 5 8 10 8 8 21 47 36 55 26 5 15 25 38
53 50 52 46 48 48 33 24 14 15 22 37 21 13 16 15 23 28 14 8 10 11 13 8 5 7 5 8 7 11 4 9 7 17 7 28 36 57 57 20 22 36 42 49
46 52 46 42 44 36 31 24 11 15 14 12 11 15 23 22 25 31 40 34 24 25 20 9 7 6 1 7 10 6 9 20 15 7 12 36 21 57 42 29 38 49 57 58
46 44 33 34 39 34 26 26 24 21 15 11 28 44 8 4 15 22 27 32 24 16 8 8 7 7 7 8 7 1 9 8 9 7 22 15 27 51 25 32 31 37 65 66
33 31 32 34 34 30 15 6 4 13 31 9 9 16 18 10 14 15 20 19 17 15 8 15 5 1 9 7 6 3 11 11 19 11 32 25 23 33 24 33 43 55 76 73
37 29 29 27 30 29 17 9 7 5 20 8 14 9 5 8 14 12 12 15 10 10 9 9 9 1 7 5 5 6 16 15 16 17 13 9 27 20 30 39 47 61 66 66
36 31 25 24 25 27 26 25 21 23 16 9 7 9 10 7 10 9 8 8 7 10 9 10 10 1 5 5 6 13 9 9 15 16 15 14 13 27 35 43 47 60 61 58
28 23 21 18 17 13 10 16 19 30 17 8 10 6 5 4 13 6 4 6 6 1 7 4 7 3 3 4 13 6 4 4 5 11 12 19 25 28 32 42 52 61 56 54
27 22 12 11 10 16 15 9 18 24 14 15 11 21 13 13 8 4 2 5 4 4 1 2 6 4 1 4 1 2 5 6 7 7 15 15 21 25 30 37 45 51 55 61
25 13 12 15 19 17 9 12 12 17 10 15 17 32 19 14 12 10 1 2 3 4 2 6 3 5 3 9 6 7 9 9 4 8 14 15 20 26 32 37 44 51 56 59
13 8 11 14 13 13 9 8 10 13 8 16 16 17 25 10 9 9 7 3 2 5 2 5 4 4 7 8 7 12 9 10 13 14 20 20 19 23 31 40 46 51 54 54
12 10 6 9 9 11 11 15 9 7 12 13 20 13 12 12 12 8 6 8 7 3 5 4 4 14 16 10 15 14 13 16 17 22 23 21 24 25 29 39 43 50 53 53
11 11 9 10 11 12 14 12 7 19 11 14 21 14 11 6 9 4 8 2 3 4 5 3 8 21 26 17 18 21 19 19 20 25 25 26 29 34 38 41 46 50 53 51
12 11 11 16 24 10 6 11 19 19 14 12 11 7 9 7 5 5 4 6 8 4 3 7 15 29 31 28 24 23 25 24 25 26 24 25 30 33 35 39 42 42 42 35
11 15 11 20 10 19 17 24 26 27 19 12 12 6 6 8 5 8 10 5 4 2 5 10 27 32 33 31 29 25 26 25 24 23 25 25 24 26 30 31 30 31 31 31
11 16 29 28 8 17 20 23 25 23 27 16 8 10 7 5 6 6 5 4 3 4 6 7 26 35 36 35 33 32 31 29 26 27 25 25 28 29 30 31 29 27 27 28
Wind_Direction_850mb
347 351 356 358 356 358 3 1 312 340 3 334 1 357 331 321 300 311 288 286 293 319 323 280 280 256 285 309 326 278 264 276 259 263 255 257 234 222 226 233 228 239 268 269
345 351 352 355 355 356 355 338 303 338 8 17 349 339 297 267 308 325 299 288 298 311 303 299 251 292 282 319 316 261 181 232 280 251 215 224 239 226 232 236 259 267 275 279
342 346 351 354 356 355 353 343 329 354 30 53 340 339 313 324 318 301 273 286 299 290 312 301 283 289 302 318 305 291 213 246 242 271 303 343 244 227 221 230 253 262 262 295
339 342 346 351 350 355 8 358 23 345 315 336 332 307 289 321 339 281 303 287 310 333 306 302 278 314 314 316 317 305 234 263 245 253 273 268 242 263 194 239 242 251 287 255
333 338 341 347 348 352 14 350 342 311 292 297 308 84 322 312 328 308 299 303 322 321 304 305 315 313 312 289 313 302 272 276 303 292 285 208 224 198 210 236 261 261 261 270
329 332 336 338 344 352 15 342 325 321 305 317 304 352 321 307 314 295 281 299 317 311 313 319 304 291 286 245 281 317 289 304 302 295 331 301 122 10 308 327 298 281 266 267
325 331 331 333 337 343 347 346 340 302 300 310 318 309 309 306 308 288 295 308 316 317 319 312 285 233 216 210 192 351 309 312 280 288 305 316 105 42 344 317 289 307 285 251
320 320 326 328 332 333 339 336 357 303 286 303 292 317 309 309 310 297 300 316 324 325 319 325 331 308 50 334 318 332 317 295 300 319 331 331 25 22 341 330 298 351 355 315
316 317 320 330 332 326 320 323 309 281 305 324 312 307 302 302 315 310 325 332 330 337 314 360 337 347 336 336 327 352 320 270 248 330 322 352 15 329 328 185 356 347 326 136
311 312 314 316 316 317 313 300 308 254 269 288 295 282 313 300 299 290 302 341 333 1 330 349 350 324 1 344 327 339 339 356 351 341 333 97 3 329 318 343 332 317 349 335
301 308 308 310 306 310 301 293 296 244 270 289 265 265 273 280 267 283 321 327 14 312 347 348 354 310 356 302 282 335 325 332 360 328 335 350 355 346 4 306 299 322 32 94
294 295 300 301 306 305 298 291 293 259 252 271 286 277 263 252 255 284 303 283 322 320 314 358 305 307 313 317 323 345 340 10 313 334 336 337 325 313 315 344 81 41 77 97
282 293 287 297 307 301 286 275 245 278 287 303 281 286 271 288 275 231 240 268 307 320 338 311 284 295 337 323 13 304 136 33 277 321 60 334 324 355 2 74 79 93 98 102
281 287 278 291 301 289 275 265 277 256 290 283 283 284 281 280 252 235 240 260 293 305 296 286 309 298 217 313 314 298 12 308 326 262 344 330 340 1 7 83 98 97 100 99
284 283 276 296 298 282 263 272 277 239 240 290 296 308 311 180 221 239 241 242 259 288 286 272 303 309 293 254 280 193 0 351 339 349 325 311 303 352 34 88 97 104 114 105
303 293 287 301 295 279 256 290 280 219 206 287 295 311 285 237 239 250 230 230 236 248 288 279 304 325 290 308 308 80 339 307 292 282 315 324 338 20 81 104 117 107 110 113
305 293 287 284 273 261 230 209 200 196 185 257 279 279 259 246 253 238 225 210 234 260 271 257 300 257 272 296 282 5 335 343 351 332 314 353 37 46 98 117 118 113 110 107
308 299 265 254 255 268 263 227 237 229 198 240 272 278 275 197 241 232 213 229 231 225 268 263 270 270 239 257 301 326 310 345 20 35 49 70 83 92 104 123 127 117 117 123
308 270 248 242 241 230 226 207 230 211 200 260 236 261 309 299 258 276 213 207 242 173 268 262 290 326 236 276 312 314 330 329 43 60 69 84 97 102 109 125 126 124 121 124
258 232 230 236 220 186 196 150 158 186 218 232 251 248 253 300 270 246 166 229 289 269 5 281 255 265 321 183 120 60 131 143 90 72 79 89 97 112 123 122 129 134 133 130
219 216 231 216 185 170 202 204 185 197 230 218 238 235 230 221 260 324 256 311 216 266 181 291 249 279 106 149 134 141 132 110 72 104 109 114 125 129 134 139 143 145 142 137
214 227 214 189 192 206 219 201 201 214 242 192 214 213 206 220 227 255 188 273 198 261 271 272 270 67 126 140 145 163 142 118 105 125 125 117 123 139 143 145 147 146 143 140
226 216 233 223 197 219 213 200 190 221 205 201 190 187 191 188 217 242 253 241 208 178 245 250 340 129 147 137 137 137 126 112 105 119 123 123 123 134 146 145 146 145 144 135
205 198 225 223 195 230 207 213 171 227 246 192 196 174 208 183 197 249 252 82 224 235 236 289 84 157 151 141 135 137 131 122 110 106 114 121 128 135 138 142 145 144 142 141
210 211 231 219 241 265 248 227 241 247 233 196 199 213 226 182 232 208 302 232 242 259 13 17 116 153 154 152 142 142 135 127 122 120 114 116 125 127 132 138 141 144 142 142
230 228 249 239 254 251 239 249 243 220 218 213 226 190 201 192 230 207 221 266 264 40 21 67 148 155 157 158 157 152 146 138 133 134 137 139 140 143 143 144 150 152 154 154
225 235 231 246 259 249 235 253 240 212 214 212 213 200 168 123 216 224 206 254 27 27 71 128 164 163 164 163 161 157 153 146 143 139 142 142 146 152 151 152 155 159 163 159